User: anonymous   Login
Location: Hepcat Sky Observatory
(29.9800°N, 95.6500°W)
Time: 09:25:19
(UTC-06:00)
Language:

SL-16 Debris - Orbit

View from above orbital plane
View from above orbital plane
View from above satellite
View from above satellite

Ground track
Ground track

The orbit data is extracted from the following two-line orbital elements,

1 26076U 99040E   16296.38254322  .00003039  00000-0  28707-3 0  9998
2 26076  28.4851 338.2697 4541535 191.4692 153.1570  6.43759581297321
Epoch (UTC): 22 October 2016 09:10:51
Eccentricity: 0.4541535
inclination: 28.4851°
perigee height: 284 km
apogee height: 11371 km
right ascension of ascending node: 338.2697°
argument of perigee: 191.4692°
revolutions per day: 6.43759581
mean anomaly at epoch: 153.1570°
orbit number at epoch: 29732

The dashed part of the orbit path shows where the satellite is in the earth's shadow,  

DLR